Temp
-13 -12 -12 -11 -13 -13 -13 -13 -13 -13 -13 -13 -13 -13 -12 -11 -11 -10 -12 -9 -12 -15 -16 -16 -15 -15 -15 -15 -14 -14 -14 -12 -13 -13 -13 -13 -13 -12 -12 -12 -12 -11 -10
-13 -13 -13 -13 -13 -14 -14 -13 -13 -13 -13 -13 -13 -13 -13 -12 -11 -11 -11 -10 -14 -16 -17 -16 -15 -16 -16 -16 -16 -15 -15 -14 -14 -14 -14 -14 -14 -14 -13 -11 -12 -11 -11
-12 -13 -13 -13 -12 -14 -15 -15 -15 -15 -14 -14 -13 -14 -13 -12 -12 -13 -13 -13 -16 -17 -17 -16 -16 -16 -17 -16 -16 -16 -15 -15 -14 -14 -14 -14 -14 -14 -14 -13 -12 -11 -11
-15 -15 -15 -16 -15 -16 -16 -16 -16 -16 -15 -14 -15 -14 -16 -15 -13 -14 -15 -16 -17 -16 -16 -16 -17 -16 -16 -16 -15 -16 -15 -15 -15 -15 -14 -15 -14 -14 -13 -13 -12 -12 -12
-17 -17 -17 -17 -17 -17 -17 -17 -17 -17 -17 -16 -16 -16 -15 -17 -16 -15 -16 -17 -17 -17 -17 -17 -17 -16 -16 -16 -16 -16 -15 -15 -15 -15 -15 -15 -14 -14 -14 -14 -13 -12 -12
-18 -18 -18 -18 -18 -18 -17 -18 -18 -19 -19 -18 -17 -18 -17 -16 -17 -17 -17 -17 -17 -17 -17 -17 -17 -16 -16 -17 -17 -16 -15 -15 -15 -15 -15 -15 -15 -15 -14 -14 -13 -13 -12
-18 -18 -18 -18 -18 -18 -18 -18 -18 -19 -19 -18 -18 -18 -18 -17 -17 -16 -17 -17 -17 -17 -17 -18 -16 -17 -17 -17 -17 -16 -16 -16 -15 -15 -15 -15 -15 -15 -14 -14 -14 -13 -13
-18 -17 -18 -19 -18 -18 -18 -18 -18 -19 -18 -18 -18 -17 -17 -17 -17 -18 -18 -17 -17 -17 -17 -17 -17 -17 -17 -17 -16 -16 -16 -16 -16 -15 -15 -15 -15 -15 -14 -14 -14 -14 -13
-18 -18 -18 -18 -18 -18 -18 -18 -18 -18 -19 -18 -18 -17 -17 -18 -18 -18 -18 -17 -17 -17 -17 -17 -17 -17 -17 -17 -16 -17 -17 -16 -16 -16 -16 -16 -15 -15 -14 -14 -14 -14 -14
-18 -18 -18 -18 -18 -17 -18 -17 -18 -18 -18 -19 -18 -18 -18 -18 -18 -18 -17 -17 -17 -17 -17 -16 -17 -17 -17 -17 -16 -17 -17 -17 -16 -16 -16 -16 -15 -15 -15 -15 -15 -14 -13
-19 -18 -18 -17 -18 -17 -17 -17 -18 -18 -18 -18 -18 -18 -18 -18 -18 -18 -17 -16 -16 -17 -17 -17 -17 -17 -17 -17 -16 -16 -17 -16 -16 -16 -16 -16 -16 -16 -15 -15 -15 -14 -14
-19 -19 -18 -18 -17 -17 -17 -17 -17 -18 -18 -18 -18 -18 -18 -18 -18 -18 -18 -17 -18 -17 -16 -17 -17 -17 -17 -17 -16 -16 -16 -16 -16 -16 -16 -16 -16 -16 -15 -15 -15 -15 -14
-18 -18 -17 -17 -17 -17 -17 -17 -17 -17 -17 -18 -18 -18 -18 -19 -18 -18 -18 -18 -18 -17 -17 -17 -17 -17 -16 -16 -16 -15 -16 -15 -16 -16 -16 -16 -16 -16 -15 -15 -15 -15 -14
-17 -17 -17 -17 -16 -17 -17 -17 -17 -17 -17 -17 -18 -18 -18 -18 -18 -18 -18 -19 -18 -18 -18 -17 -17 -17 -16 -16 -16 -15 -15 -15 -16 -16 -16 -16 -16 -16 -15 -15 -15 -15 -14
-15 -16 -16 -16 -16 -16 -17 -17 -17 -17 -17 -17 -17 -17 -17 -18 -18 -18 -18 -18 -18 -18 -17 -16 -16 -16 -15 -16 -16 -15 -15 -15 -16 -16 -16 -16 -16 -16 -15 -15 -15 -15 -14
-17 -16 -15 -16 -16 -17 -17 -17 -17 -18 -18 -18 -18 -18 -18 -18 -18 -18 -18 -18 -18 -18 -18 -18 -17 -17 -16 -16 -16 -16 -15 -15 -16 -16 -16 -15 -15 -16 -16 -15 -15 -14 -14
-15 -15 -15 -15 -16 -17 -16 -16 -17 -17 -17 -18 -18 -19 -19 -18 -18 -18 -18 -18 -18 -18 -18 -18 -18 -17 -17 -17 -17 -16 -16 -16 -16 -16 -16 -15 -15 -15 -16 -15 -15 -14 -14
-14 -14 -14 -15 -15 -16 -16 -17 -17 -17 -17 -17 -17 -18 -18 -18 -18 -18 -18 -18 -18 -18 -18 -18 -18 -18 -18 -18 -17 -17 -16 -16 -16 -16 -16 -15 -15 -15 -15 -15 -14 -15 -13
-14 -14 -15 -16 -16 -16 -16 -16 -17 -16 -17 -17 -18 -18 -18 -18 -19 -18 -19 -18 -17 -17 -18 -18 -18 -19 -18 -18 -17 -16 -16 -16 -16 -16 -16 -15 -15 -15 -15 -14 -14 -16 -13
-14 -14 -15 -15 -15 -15 -16 -17 -17 -17 -17 -17 -18 -19 -18 -18 -18 -18 -17 -18 -18 -18 -17 -17 -18 -18 -18 -18 -17 -17 -16 -16 -16 -16 -15 -15 -15 -15 -14 -14 -14 -14 -13
-14 -14 -15 -15 -15 -15 -15 -15 -16 -17 -17 -18 -18 -18 -18 -18 -18 -18 -18 -19 -18 -18 -18 -17 -17 -18 -18 -18 -17 -17 -16 -16 -16 -15 -15 -15 -15 -15 -14 -14 -15 -14 -13
-14 -14 -14 -15 -15 -15 -15 -14 -15 -16 -16 -17 -17 -17 -17 -17 -18 -18 -18 -17 -17 -17 -18 -17 -17 -17 -17 -17 -17 -17 -16 -16 -16 -15 -15 -15 -15 -15 -14 -14 -14 -13 -12
-13 -13 -14 -14 -15 -14 -15 -15 -15 -16 -16 -16 -17 -17 -16 -16 -17 -17 -17 -17 -16 -17 -17 -17 -17 -17 -17 -16 -16 -16 -16 -16 -15 -15 -15 -15 -15 -14 -14 -15 -13 -13 -13
-13 -13 -13 -14 -15 -15 -15 -15 -15 -16 -15 -15 -15 -16 -16 -16 -16 -16 -16 -16 -17 -16 -16 -16 -17 -16 -16 -16 -16 -16 -15 -15 -15 -15 -14 -14 -14 -14 -14 -14 -13 -13 -13
-14 -13 -13 -13 -14 -15 -15 -16 -15 -15 -16 -15 -15 -15 -16 -16 -16 -16 -16 -16 -16 -16 -16 -16 -16 -15 -16 -16 -15 -15 -15 -15 -15 -14 -14 -13 -13 -14 -14 -13 -13 -13 -14
-14 -14 -14 -14 -14 -14 -14 -15 -14 -14 -15 -15 -15 -15 -15 -15 -15 -15 -15 -16 -16 -16 -16 -16 -15 -15 -15 -15 -15 -15 -15 -15 -14 -14 -13 -13 -13 -14 -13 -13 -13 -14 -13
Height
5673 5672 5671 5670 5675 5671 5671 5671 5672 5674 5679 5686 5686 5683 5679 5686 5683 5669 5660 5676 5660 5670 5688 5695 5698 5706 5709 5712 5713 5712 5717 5715 5702 5722 5722 5723 5722 5723 5726 5727 5729 5730 5734
5656 5655 5654 5652 5653 5652 5651 5651 5652 5653 5657 5666 5667 5666 5664 5672 5671 5663 5664 5691 5638 5662 5678 5683 5684 5691 5695 5699 5702 5704 5704 5708 5707 5711 5713 5715 5714 5714 5715 5718 5720 5721 5724
5641 5639 5638 5634 5634 5632 5631 5631 5632 5633 5638 5643 5649 5649 5645 5651 5649 5650 5656 5649 5653 5662 5667 5674 5678 5677 5681 5685 5690 5694 5694 5696 5698 5699 5702 5704 5705 5706 5707 5707 5709 5711 5713
5625 5622 5620 5618 5617 5616 5616 5616 5616 5616 5618 5626 5624 5630 5613 5625 5639 5632 5637 5647 5652 5655 5659 5662 5665 5667 5671 5673 5677 5683 5685 5687 5689 5689 5691 5694 5696 5697 5698 5698 5700 5700 5703
5611 5609 5607 5605 5603 5605 5603 5599 5599 5598 5600 5607 5608 5608 5603 5609 5617 5624 5626 5631 5636 5643 5646 5649 5651 5657 5660 5664 5669 5673 5674 5677 5679 5680 5681 5685 5687 5689 5688 5689 5690 5692 5694
5597 5595 5593 5591 5589 5589 5589 5586 5582 5582 5583 5590 5593 5591 5589 5598 5599 5608 5615 5622 5626 5629 5632 5637 5640 5645 5648 5653 5659 5661 5665 5668 5669 5671 5673 5676 5679 5680 5680 5680 5680 5682 5686
5581 5579 5576 5575 5574 5573 5573 5573 5571 5569 5571 5577 5580 5580 5581 5588 5589 5586 5602 5608 5614 5618 5622 5625 5628 5634 5636 5643 5648 5651 5654 5657 5659 5661 5664 5666 5669 5671 5672 5672 5672 5673 5676
5563 5560 5558 5556 5555 5555 5556 5557 5558 5559 5559 5564 5569 5568 5568 5579 5582 5584 5590 5598 5603 5605 5608 5612 5617 5622 5631 5636 5638 5640 5643 5647 5649 5652 5656 5659 5661 5662 5664 5665 5665 5666 5669
5541 5538 5535 5535 5536 5538 5539 5541 5543 5545 5548 5550 5554 5557 5558 5564 5572 5576 5580 5586 5591 5592 5597 5605 5609 5617 5621 5627 5629 5630 5634 5639 5641 5644 5649 5652 5653 5655 5656 5659 5658 5660 5662
5518 5515 5514 5517 5517 5519 5521 5523 5527 5530 5534 5539 5542 5546 5551 5558 5561 5565 5571 5574 5578 5585 5576 5588 5603 5608 5613 5617 5619 5623 5626 5632 5634 5637 5642 5645 5647 5648 5650 5652 5652 5653 5655
5499 5499 5499 5502 5503 5503 5506 5508 5511 5514 5518 5524 5529 5533 5540 5544 5548 5552 5557 5561 5566 5572 5579 5585 5593 5600 5607 5609 5610 5614 5619 5623 5627 5631 5635 5639 5640 5642 5643 5646 5646 5647 5649
5486 5487 5487 5490 5492 5491 5492 5495 5496 5499 5502 5508 5514 5520 5525 5532 5537 5541 5544 5548 5555 5562 5569 5576 5585 5593 5599 5602 5603 5607 5612 5615 5620 5625 5628 5631 5633 5636 5638 5640 5640 5641 5644
5479 5478 5478 5479 5481 5481 5481 5484 5485 5486 5488 5492 5497 5504 5511 5516 5523 5528 5534 5541 5543 5548 5559 5569 5574 5581 5587 5594 5597 5601 5605 5608 5614 5618 5622 5625 5627 5630 5632 5635 5636 5636 5638
5475 5472 5471 5471 5470 5470 5469 5469 5469 5470 5471 5475 5479 5486 5494 5500 5506 5513 5520 5526 5531 5539 5547 5554 5562 5569 5576 5582 5590 5595 5599 5603 5608 5613 5616 5619 5622 5624 5627 5629 5631 5631 5632
5473 5470 5467 5464 5462 5459 5457 5457 5456 5456 5456 5458 5462 5466 5472 5481 5489 5494 5501 5508 5516 5524 5531 5539 5548 5557 5565 5571 5581 5588 5593 5597 5602 5607 5610 5614 5617 5619 5621 5623 5625 5625 5626
5468 5461 5457 5453 5450 5446 5444 5443 5440 5440 5439 5442 5446 5449 5455 5461 5467 5475 5482 5492 5500 5511 5520 5530 5539 5547 5552 5561 5571 5579 5586 5590 5596 5600 5604 5609 5612 5614 5616 5618 5619 5619 5619
5465 5459 5452 5448 5442 5438 5436 5435 5432 5431 5430 5429 5430 5432 5436 5444 5449 5456 5465 5476 5484 5495 5504 5515 5525 5534 5542 5552 5561 5570 5577 5583 5589 5593 5598 5602 5605 5608 5611 5613 5613 5613 5612
5463 5457 5448 5444 5437 5435 5433 5429 5427 5424 5422 5420 5418 5420 5422 5425 5430 5438 5447 5456 5465 5477 5489 5501 5511 5521 5530 5542 5552 5561 5569 5576 5581 5586 5591 5596 5600 5603 5605 5606 5608 5608 5607
5462 5456 5448 5442 5437 5432 5427 5423 5418 5414 5411 5409 5406 5407 5409 5413 5417 5421 5429 5437 5447 5461 5475 5486 5499 5509 5520 5530 5542 5551 5559 5566 5574 5579 5584 5590 5595 5597 5599 5601 5602 5602 5603
5462 5456 5448 5443 5435 5429 5423 5418 5411 5406 5401 5397 5393 5393 5395 5400 5406 5412 5418 5426 5440 5453 5464 5475 5486 5497 5509 5520 5531 5542 5551 5558 5565 5572 5578 5584 5588 5591 5594 5596 5598 5597 5602
5464 5458 5450 5442 5436 5428 5420 5412 5406 5400 5393 5386 5383 5381 5384 5391 5397 5405 5414 5422 5431 5441 5454 5466 5477 5487 5498 5509 5522 5534 5544 5551 5558 5566 5573 5578 5581 5584 5588 5590 5591 5593 5600
5467 5460 5454 5446 5439 5430 5421 5411 5403 5397 5391 5384 5382 5381 5383 5389 5395 5403 5411 5417 5426 5434 5444 5460 5470 5479 5490 5503 5517 5528 5537 5545 5552 5561 5566 5571 5576 5581 5584 5587 5587 5591 5596
5472 5466 5458 5451 5444 5435 5427 5418 5408 5400 5394 5389 5386 5385 5387 5390 5397 5403 5408 5414 5420 5431 5444 5456 5468 5477 5490 5503 5515 5525 5533 5541 5548 5555 5561 5566 5572 5577 5581 5582 5584 5587 5593
5477 5471 5464 5457 5449 5442 5435 5427 5418 5409 5402 5399 5397 5396 5398 5401 5405 5409 5413 5418 5425 5435 5446 5458 5470 5482 5493 5504 5514 5521 5529 5538 5545 5552 5558 5564 5569 5572 5576 5578 5582 5587 5591
5483 5477 5471 5465 5459 5452 5446 5438 5430 5422 5415 5409 5408 5409 5409 5410 5412 5415 5418 5423 5431 5444 5456 5465 5476 5485 5494 5503 5511 5517 5526 5536 5543 5550 5555 5560 5566 5571 5571 5578 5582 5586 5590
5489 5484 5480 5474 5468 5463 5457 5450 5443 5438 5431 5426 5422 5421 5421 5420 5421 5422 5426 5431 5439 5450 5462 5470 5480 5489 5497 5504 5511 5520 5529 5536 5542 5548 5552 5558 5562 5567 5572 5577 5581 5585 5588
Wind_Speed
64 64 65 66 64 67 69 70 71 72 71 70 70 72 76 71 68 64 60 50 45 35 44 47 47 49 46 48 53 52 43 44 36 37 34 33 37 40 41 38 39 40 39
62 62 64 65 64 66 69 72 73 74 74 72 73 75 78 75 75 77 64 81 50 38 49 51 51 50 48 49 46 48 47 46 48 39 35 34 37 42 44 42 40 37 39
60 60 61 63 64 60 63 68 69 72 75 76 79 78 83 83 83 79 74 83 66 51 50 52 55 48 49 51 53 43 44 43 41 38 34 35 37 38 38 43 42 41 39
51 50 50 48 50 52 46 47 53 56 59 57 55 56 70 85 84 86 75 71 58 56 54 54 58 46 48 49 50 45 41 38 41 38 35 33 33 34 35 39 40 43 38
42 44 45 45 43 42 44 46 49 55 58 56 54 61 67 61 64 75 76 55 48 48 53 52 51 48 45 40 40 39 41 39 40 38 34 31 28 28 27 29 31 38 39
46 46 47 48 49 49 46 43 47 43 47 49 50 50 47 51 42 51 51 47 46 48 49 50 52 53 48 55 44 39 44 41 38 36 34 32 27 23 25 26 23 28 25
52 52 53 53 53 52 49 45 39 40 41 42 50 47 49 49 33 47 35 40 45 43 43 46 47 49 35 34 37 38 41 41 36 33 31 31 26 23 23 22 24 21 19
60 58 59 58 58 59 56 52 44 38 37 37 36 39 55 47 36 39 41 43 41 41 37 39 35 33 34 33 36 34 35 39 31 28 27 26 25 25 25 19 18 18 18
68 67 65 62 61 59 58 53 50 42 39 36 37 35 44 45 38 38 43 43 39 38 36 32 33 35 31 34 33 29 31 33 30 28 24 22 21 25 25 19 20 16 20
61 57 59 55 55 57 57 53 50 48 45 40 38 35 32 39 49 51 46 44 43 35 42 33 31 30 32 35 30 28 31 30 32 29 23 21 21 23 24 21 23 21 21
51 51 48 48 45 47 47 45 48 51 49 45 42 40 40 39 36 39 52 51 44 41 40 33 35 33 32 31 28 29 28 29 30 27 23 21 22 23 24 24 24 22 21
38 39 36 42 42 42 41 37 41 46 50 49 47 45 43 42 39 38 35 41 53 54 49 39 42 38 36 32 28 29 27 26 24 22 20 21 23 24 24 23 24 25 21
29 28 34 38 39 40 41 41 42 44 45 50 54 49 49 49 46 45 45 42 30 49 54 46 47 44 40 37 31 28 30 27 20 20 20 23 25 26 24 22 22 23 21
22 22 27 32 36 39 43 44 47 43 44 46 48 53 53 54 54 53 51 48 44 37 47 47 45 41 40 41 36 33 31 27 22 21 20 20 24 25 24 25 23 23 23
24 24 27 30 33 37 39 41 44 42 43 46 48 50 52 58 57 58 58 57 55 52 50 49 49 45 42 43 40 37 33 31 27 29 24 19 21 28 25 24 23 25 24
28 31 28 27 29 29 30 33 37 41 47 47 47 48 49 51 57 63 62 59 59 60 59 55 52 50 47 46 44 39 39 35 31 33 30 25 18 25 23 22 25 25 28
27 26 33 23 19 11 13 15 20 19 24 29 35 49 55 51 50 54 60 63 62 58 57 56 54 55 50 44 40 40 41 37 34 34 29 25 19 20 25 26 28 26 26
23 27 24 29 26 19 15 14 24 17 19 21 26 32 31 34 50 54 53 56 61 62 59 56 54 50 50 46 39 39 39 42 38 34 33 26 18 24 29 27 25 28 18
21 25 23 27 26 20 24 29 18 22 22 23 18 26 40 41 35 38 54 56 57 54 52 53 54 53 46 46 45 39 37 39 42 39 36 27 22 28 27 28 26 29 15
22 24 15 23 26 24 19 25 24 32 30 36 23 25 29 36 30 38 37 49 44 38 46 44 41 44 48 45 51 45 41 36 38 37 34 26 27 28 27 25 27 21 9
32 24 25 25 26 30 26 23 20 19 19 15 14 16 20 20 23 31 30 32 34 40 43 37 37 40 44 44 49 42 41 37 35 35 31 29 27 26 26 24 30 16 17
37 30 28 26 29 31 32 28 26 21 20 10 7 4 9 19 21 25 23 24 34 28 42 39 35 38 44 42 46 41 39 36 35 36 34 30 27 25 25 26 26 11 19
34 36 35 30 30 35 35 34 32 24 20 20 16 9 12 18 21 19 19 20 27 37 39 38 33 31 37 42 40 37 37 36 36 36 32 30 25 23 24 28 15 24 24
31 34 30 31 30 33 36 38 40 39 24 18 22 22 18 15 14 13 14 20 35 39 37 40 35 36 39 35 37 37 37 36 33 31 30 28 26 24 29 18 12 21 18
28 32 32 26 34 38 35 36 37 41 41 24 17 16 19 19 15 12 14 19 29 38 35 35 34 36 37 33 39 41 38 34 32 31 30 29 29 28 19 16 18 16 12
24 24 30 34 26 32 38 37 38 38 40 42 29 24 22 23 23 23 27 30 34 40 41 37 35 31 33 38 39 35 31 32 33 30 29 26 24 22 23 22 20 10 10
Wind_Direction
275 273 271 270 270 268 266 265 265 263 263 261 259 259 264 264 260 254 269 251 268 242 250 259 262 268 271 274 275 276 275 275 275 272 266 262 266 266 267 269 267 266 262
271 273 271 273 268 265 264 264 262 262 262 261 259 258 260 261 259 259 260 241 280 265 264 269 269 265 264 270 275 278 274 269 276 274 263 257 264 268 264 260 264 260 260
275 272 271 269 268 266 265 263 265 262 259 259 257 257 257 258 258 257 253 262 280 274 273 268 278 260 266 270 271 271 270 270 269 270 263 254 254 259 265 264 261 259 257
277 276 273 268 266 268 274 275 271 268 266 248 259 263 250 251 253 256 258 259 267 269 269 267 273 267 268 281 266 265 263 264 263 264 263 264 259 263 263 263 260 257 258
277 274 273 268 269 274 277 285 279 265 258 255 254 247 264 257 257 256 261 263 263 261 264 265 262 262 266 265 265 261 258 261 263 260 260 260 262 269 271 276 266 258 257
276 271 271 268 271 278 277 284 283 270 254 247 248 248 264 238 251 248 246 252 258 265 268 267 262 260 263 258 259 261 256 257 258 257 255 258 265 271 279 281 278 264 259
278 274 271 268 269 271 274 279 273 272 262 262 247 251 250 250 237 238 239 254 253 258 263 260 260 260 247 249 260 258 254 256 253 254 256 259 266 271 277 276 280 264 260
277 274 269 266 266 268 267 271 274 263 271 260 259 260 246 242 255 256 257 247 246 250 259 252 254 244 244 253 257 254 257 256 252 252 258 263 267 271 275 272 275 259 253
278 276 270 268 265 264 266 267 266 262 262 260 254 259 243 241 249 252 249 251 250 254 241 243 232 241 252 247 249 255 256 255 255 252 255 256 260 262 270 262 272 270 247
279 276 270 264 268 265 263 263 261 261 257 258 257 251 252 239 250 245 240 248 241 240 219 229 242 244 242 245 248 250 251 250 253 254 254 253 253 252 260 261 270 271 246
276 277 269 260 266 267 266 264 258 255 255 253 253 253 247 245 246 249 250 244 241 249 247 230 238 245 238 244 245 249 250 247 250 254 253 249 247 245 252 251 265 259 264
278 271 272 262 265 266 261 259 257 253 254 252 246 245 245 241 242 246 249 242 243 239 247 248 247 232 234 238 241 246 252 252 254 252 247 243 243 242 246 248 260 258 258
295 278 264 262 263 263 262 262 264 263 258 251 248 243 241 240 240 238 241 243 244 239 232 235 235 237 234 232 237 232 245 252 251 248 239 239 244 245 251 249 261 257 244
296 282 267 265 265 264 263 263 268 266 261 253 250 247 240 238 238 237 236 235 231 229 228 230 233 233 235 220 231 234 242 245 244 226 224 237 246 248 248 262 258 252 239
301 295 286 281 274 273 272 270 268 265 258 257 252 247 243 237 236 236 236 235 232 229 228 227 232 230 227 220 221 230 237 237 235 218 225 232 240 244 248 255 248 255 257
309 310 305 305 292 283 277 275 274 271 267 254 249 252 246 241 238 237 235 235 236 234 232 232 234 234 228 225 225 227 231 230 232 218 225 232 241 238 248 251 252 256 247
323 324 324 319 284 287 310 296 287 261 278 266 254 250 246 246 244 238 236 234 233 231 230 234 234 236 235 235 230 227 228 229 235 225 225 227 238 233 239 251 255 254 247
332 334 317 345 329 302 303 322 335 291 284 287 271 250 247 247 242 236 235 233 232 232 232 232 234 233 234 232 232 227 229 224 227 234 235 228 235 226 242 254 252 249 243
330 348 346 348 350 334 323 320 317 307 284 288 272 261 237 240 232 238 233 231 231 229 229 230 226 228 227 224 221 219 220 225 224 232 232 220 237 230 240 247 246 247 245
338 345 344 2 4 356 340 325 311 315 300 301 283 261 253 242 241 229 231 229 228 223 227 226 225 222 221 218 213 216 219 211 220 225 219 217 237 238 236 242 241 233 201
13 2 14 10 4 354 352 343 327 327 331 307 273 263 236 228 214 212 219 222 221 221 219 212 214 212 210 208 205 207 208 215 216 216 212 228 234 240 237 240 241 234 228
23 27 11 19 17 22 18 5 2 3 11 16 353 34 190 200 205 210 212 212 206 213 197 201 198 202 206 200 195 200 204 209 209 204 217 221 234 236 234 239 238 238 200
34 29 28 26 31 32 25 24 23 28 30 45 54 82 125 138 164 177 186 192 196 180 173 181 187 181 182 182 188 194 201 203 202 207 216 226 229 228 229 235 219 195 197
29 28 33 30 32 34 27 34 36 37 44 53 67 81 102 123 141 155 158 165 169 168 170 174 174 172 177 183 187 194 196 192 200 208 214 215 218 224 233 234 199 187 186
36 42 40 37 39 32 38 37 43 40 46 60 81 89 96 96 100 118 133 139 163 167 165 163 167 169 172 176 188 187 188 190 196 199 204 207 210 222 234 195 182 195 193
43 48 43 45 40 43 39 45 48 47 51 55 71 84 91 98 101 108 119 128 138 153 165 168 171 174 177 180 185 188 187 190 195 196 202 208 220 191 177 183 185 185 209